星链-31896 (STARLINK-31896 )

导读

STARLINK-31896是美国太空探索技术公司(SpaceX)星链互联网星座的一员,于北京时间2024年5月23日由猎鹰9号火箭发射入轨。它属于Starlink v2.0 mini批次,运行在近地轨道,搭载先进通信与推进技术,支持自动避碰功能。作为星链星座的扩容卫星,它将进一步增强星座的全球覆盖能力,为全球用户提供高速低延迟的宽带互联网接入服务,推动普惠互联网的发展布局。

Basic Information
目录编号:
59851
目录名称:
STARLINK-31896
国际标识:
2024-097S
轨道中心:
EARTH
卫星名称:
星链-31896
卫星全名:
星链-31896 (STARLINK-31896 )
卫星状态:
在轨 (已飞行842 天)
发射日期:
2024-05-23 UTC
国别 :
美国 (US)
星等 :
--
This satellite is enrolled in the Space Conjunction Data Service (SCDS) and the current flight risk assessment level is: High Risk
Orbit Information
数据来源 国际轨道数据 AOE轨道数据
星历时间 2026-09-11T19:54:12+0800
15小时前
查看轨道信息
2026-09-10T07:00:00+0800
2天前
查看轨道信息
半长轴 6861.194km 6861.216km
偏心率 0.0001156 0.0001575
轨道倾角 43.002° 43.001°
近地点辐角 273.964° 263.866°
升交点赤经 305.011° 313.698°
平近点角 86.108° 270.391°
近地点 482.263km 481.998km
远地点 483.851km 484.16km
周期 94.267分钟 94.267分钟
每日圈数 15.275775 15.275701
Detailed Information
固有亮度:
5
最大亮度:
1.5
卫星平台:
Starlink v2.0 mini
覆盖范围:
全球
运营商:
太空探索技术公司
运营商所在国:
美国
制造商(研发单位):
太空探索技术公司
制造商所在国:
美国
使用方式:
暂无
Satellite Introduction
星链(Starlink)计划是由太空探索技术公司(SpaceX)提出的一个巨型低轨卫星互联网星座项目,计划在2019年至2024年间在太空搭建由约1.2万颗卫星组成的“星链”网络,其中1584颗将部署在地球上空550千米处的近地轨道,并从2020年开始工作。该卫星仍在工作。
2D Orbit Map
3D Orbit Map
Orbit Altitude Analysis Chart
Orbit Inclination Analysis Chart
Orbit Comprehensive Analysis Chart
View Comprehensive Chart
Miss Distance Evolution Trend with All Objects
Collision Probability Evolution Trend with All Objects